Location: Newark
(42.7133°N, 87.7910°W)
Time: 00:37:39
(UTC+00:00)

A-11 Canister half - Pass Details

Date: 29 September 2019
Orbit: 1527 x 1682 km, 47.3° (Epoch: 13 October)

Event Time Altitude Azimuth Distance (km) Brightness Sun altitude
Exits shadow 07:13:33 39° 84° (E) 2,185 9.8 -44.7°
Drops below altitude 10° 07:19:08 10° 67° (ENE) 3,756 11.5 -44.1°
Sets 07:22:17 0° 64° (ENE) 4,761 12.2 -43.8°
